Greenville Downtown, SC

12:11 PM EDT on July 22, 2017 (GMT -0400)
Greenville Downtown

Weather History for KGMU - October, 2013

Change the Weather History Date:

Tuesday, October 29, 2013

  Actual Average Record
Temperature  
Mean Temperature 62 °F -  
Max Temperature 73 °F 66 °F 84 °F (2016)
Min Temperature 52 °F 48 °F 30 °F (2008)
Degree Days  
Heating Degree Days 3    
Growing Degree Days 12 (Base 50)    
Moisture  
Dew Point 51 °F    
Average Humidity 70    
Maximum Humidity 93    
Minimum Humidity 42    
Precipitation  
Precipitation 0.00 in - - ()
Sea Level Pressure  
Sea Level Pressure 30.29 in    
Wind  
Wind Speed 2 mph (NE)    
Max Wind Speed 8 mph    
Max Gust Speed -    
Visibility 10 miles    
Events      
Averages and records for this station are not official NWS values.
T = Trace of Precipitation, MM = Missing Value Source: NWS Daily Summary

Daily Weather History Graph

Daily Weather History Graph

Search for Another Location

Airport or City:

Trip Planner

Search our weather history database for the weather conditions in past years. The results will help you decide how hot, cold, wet, or windy it might be!

Date:

Astronomy

Oct. 29, 2013 Rise Set
Actual Time 7:47 AM EDT 6:38 PM EDT
Civil Twilight 7:21 AM EDT 7:04 PM EDT
Nautical Twilight 6:51 AM EDT 7:33 PM EDT
Astronomical Twilight 6:22 AM EDT 8:03 PM EDT
Moon 2:48 AM EDT (10/29) 3:40 PM EDT (10/29)
Length of Visible Light 11h 42m
Length of Day
10h 50m
Waning Crescent, 25% of the Moon is Illuminated
Oct 29
Waning Crescent
Nov 3
New
Nov 10
First Quarter
Nov 17
Full
Nov 25
Last Quarter

Hourly Weather History & Observations

Time (EDT) Temp. Dew Point Humidity Pressure Visibility Wind Dir Wind Speed Gust Speed Precip Events Conditions
12:53 AM 57.9 °F 52.0 °F 81% 30.27 in 10.0 mi SW 3.5 mph - N/A   Overcast
1:53 AM 55.9 °F 52.0 °F 87% 30.26 in 10.0 mi Calm Calm - N/A   Clear
2:53 AM 54.0 °F 51.1 °F 90% 30.25 in 10.0 mi Calm Calm - N/A   Clear
3:53 AM 53.1 °F 50.0 °F 89% 30.27 in 8.0 mi Calm Calm - N/A   Clear
4:53 AM 53.1 °F 51.1 °F 93% 30.27 in 7.0 mi Calm Calm - N/A   Clear
5:53 AM 52.0 °F 50.0 °F 93% 30.29 in 7.0 mi Calm Calm - N/A   Clear
6:53 AM 52.0 °F 48.9 °F 89% 30.30 in 8.0 mi Calm Calm - N/A   Scattered Clouds
7:53 AM 54.0 °F 51.1 °F 90% 30.31 in 10.0 mi North 6.9 mph - N/A   Clear
8:53 AM 57.9 °F 52.0 °F 81% 30.32 in 10.0 mi NNW 3.5 mph - N/A   Clear
9:53 AM 63.0 °F 52.0 °F 67% 30.34 in 10.0 mi North 8.1 mph - N/A   Clear
10:53 AM 66.9 °F 52.0 °F 59% 30.33 in 10.0 mi NE 6.9 mph - N/A   Clear
11:53 AM 69.1 °F 51.1 °F 53% 30.34 in 10.0 mi Variable 5.8 mph - N/A   Clear
12:53 PM 72.0 °F 50.0 °F 46% 30.31 in 10.0 mi NE 5.8 mph - N/A   Clear
1:53 PM 70.0 °F 48.9 °F 47% 30.29 in 10.0 mi NNE 5.8 mph - N/A   Scattered Clouds
2:53 PM 70.0 °F 50.0 °F 49% 30.27 in 10.0 mi NE 5.8 mph - N/A   Mostly Cloudy
3:53 PM 71.1 °F 46.9 °F 42% 30.26 in 10.0 mi Calm Calm - N/A   Partly Cloudy
4:53 PM 69.1 °F 50.0 °F 51% 30.26 in 10.0 mi SSE 3.5 mph - N/A   Partly Cloudy
5:53 PM 70.0 °F 50.0 °F 49% 30.26 in 10.0 mi SE 4.6 mph - N/A   Partly Cloudy
6:53 PM 66.9 °F 51.1 °F 57% 30.28 in 10.0 mi Calm Calm - N/A   Mostly Cloudy
7:53 PM 64.9 °F 52.0 °F 63% 30.29 in 10.0 mi Calm Calm - N/A   Clear
8:53 PM 62.1 °F 52.0 °F 70% 30.29 in 10.0 mi Calm Calm - N/A   Clear
9:53 PM 60.1 °F 51.1 °F 72% 30.30 in 10.0 mi Calm Calm - N/A   Clear
10:53 PM 60.1 °F 52.0 °F 75% 30.29 in 10.0 mi Calm Calm - N/A   Clear
11:53 PM 57.9 °F 52.0 °F 81% 30.29 in 10.0 mi Calm Calm - N/A   Clear